Regional Weather Roundup
Issued by NWS

Home | Current Version | Previous Version | Graphics & Text | Print | Product List | Glossary On
Versions: 1 2 3 4 5 6 7 8 9 10 11 12 13 14 15 16 17 18 19 20 21 22 23 24 25 26 27 28 29 30 31 32 33 34 35 36 37 38 39 40 41 42 43 44 45 46 47 48 49 50
000
ASUS43 KMPX 270410
RWRMN
WEATHER ROUNDUP FOR MINNESOTA
NATIONAL WEATHER SERVICE TWIN CITIES/CHANHASSEN MN
1100 PM CDT WED APR 26 2017


NOTE: "FAIR" INDICATES FEW OR NO CLOUDS BELOW 12,000 FEET WITH NO
SIGNIFICANT WEATHER AND/OR OBSTRUCTIONS TO VISIBILITY. N/A MEANS
CURRENT SKY AND/OR WEATHER CONDITIONS ARE NOT AVAILABLE.

MNZ060>063-068>070-270500-
   Twin Cities Metro

CITY           SKY/WX    TMP DP  RH WIND       PRES   REMARKS
TWIN CITIES    CLOUDY    37  31  78 N10       29.58F
ST PAUL        CLOUDY    37  33  85 N15       29.59F
CRYSTAL        CLOUDY    35  30  82 N8        29.58F WCI  29
LAKEVILLE      CLOUDY    34  34 100 NW12      29.58S FOG     WCI  25
EDEN PRAIRIE   CLOUDY    36  31  82 N9        29.57F
SOUTH ST PAUL  CLOUDY    37  34  89 NW10      29.57F
LAKE ELMO      MIX PCPN  36  34  93 N6        29.57F
$$
MNZ001>005-007-008-013>017-022>024-027-028-270500-
   Northwest Minnesota

CITY           SKY/WX    TMP DP  RH WIND       PRES   REMARKS
BEMIDJI        FLURRIES  25  22  90 NE12      29.66F WCI  14
HALLOCK        LGT SNOW  32  28  86 NE18G25   29.79S WCI  20
ROSEAU         LGT SNOW  28  25  86 NE22      29.77S WCI  15
WARROAD        LGT SNOW  28  23  80 NE24G35   29.77F WCI  14
THIEF RVR FALL LGT SNOW  26  25  96 NE15      29.74S FOG     WCI  14
CROOKSTON      LGT SNOW  28  27  93 NE10G16   29.76F WCI  19
FOSSTON        LGT SNOW  25  23  93 N13       29.70S WCI  13
DETROIT LAKES  CLOUDY    28  28 100 CALM      29.66F FOG
MOORHEAD       LGT RAIN  28  27  93 N7        29.72F WCI  21
PARK RAPIDS    LGT SNOW  27  21  78 N12       29.63F WCI  17
MAHNOMEN       LGT SNOW  27  25  93 N5        29.68F WCI  21
$$
MNZ006-009>011-018-025>026-270500-
   North Central Minnesota

CITY           SKY/WX    TMP DP  RH WIND       PRES   REMARKS
BAUDETTE       FLURRIES  26  19  74 NE18      29.74S WCI  13
FLAG ISLAND    FLURRIES  28  21  74 NE21      29.79F WCI  15
INTL FALLS     CLOUDY    24  16  71 NE14G22   29.71F WCI  12
WASKISH        FLURRIES  25  19  80 NE10      29.71F WCI  15
BIG FORK       CLOUDY    25  19  80 N8        29.65F WCI  16
LONGVILLE      LGT SNOW  27  25  93 N5        29.63F WCI  21
GRAND RAPIDS   CLOUDY    25  20  81 NE8       29.65F WCI  16
CRANE LAKE     CLOUDY    21  18  86 NE7       29.70F WCI  13
ORR            CLOUDY    21  16  79 NE5       29.64F WCI  15
COOK           CLOUDY    23  18  80 N7        29.64F WCI  15
WALKER         LGT SNOW  25  22  89 N7        29.64F WCI  17
$$
MNZ012-019>021-037-270500-
   Northeast Minnesota

CITY           SKY/WX    TMP DP  RH WIND       PRES   REMARKS
DULUTH         CLOUDY    26  23  88 N12       29.58F WCI  16
ELY            CLOUDY    21  18  86 N6        29.62F WCI  14
HIBBING        CLOUDY    23  20  88 NE7       29.61F WCI  15
EVELETH        CLOUDY    24  17  77 NE6       29.63F WCI  17
DULUTH HARBOR  CLOUDY    30  27  86 N13       29.63F WCI  20
TWO HARBORS    CLOUDY    28  23  80 N6        29.59F WCI  22
SILVER BAY     CLOUDY    25  21  86 N9        29.59F WCI  15
GRAND MARAIS     N/A     24  19  81 N14G24    29.60F WCI  12
G MARAIS ARPRT CLOUDY    18  12  79 N5        29.55F WCI  11
$$
MNZ029>031-032-039>041-046>048-054>057-064-270500-
   West Central Minnesota

CITY           SKY/WX    TMP DP  RH WIND       PRES   REMARKS
FERGUS FALLS   CLOUDY    28  27  93 N9        29.67F WCI  20
WHEATON        CLOUDY    30  27  86 NW14G21   29.70F WCI  20
MORRIS         CLOUDY    30  28  93 NW15      29.64F WCI  19
ALEXANDRIA     CLOUDY    30  26  85 N10       29.63F WCI  21
ELBOW LAKE     CLOUDY    30  29  97 NW13      29.65F FOG     WCI  20
WADENA         LGT SNOW  27  27 100 N3        29.62F
GLENWOOD       CLOUDY    28  28 100 N7        29.63F FOG     WCI  21
APPLETON       CLOUDY    32  27  80 N14G20    29.66F WCI  22
BENSON         CLOUDY    34  27  75 N12       29.66S WCI  25
ORTONVILLE     CLOUDY    30  25  80 N15       29.67F WCI  19
MADISON        CLOUDY    34  30  86 N14       29.67F WCI  24
WILLMAR        CLOUDY    34  30  86 N10       29.64F WCI  26
$$
MNZ033>034-036-042>043-049>051-058-059-270500-
   Central Minnesota

CITY           SKY/WX    TMP DP  RH WIND       PRES   REMARKS
ST CLOUD       LGT SNOW  31  30  96 NW7       29.60F FOG     WCI  24
SAUK CENTRE    CLOUDY    30  27  89 N7        29.62F WCI  23
PAYNESVILLE    CLOUDY    31  31 100 NW6       29.62F WCI  25
AITKIN         MIX PCPN  30  25  80 N8        29.60F WCI  23
PINE RIVER     LGT SNOW  27  27 100 N5        29.66F WCI  21
BRAINERD       CLOUDY    29  26  89 N10       29.61F WCI  20
STAPLES        CLOUDY    27  27 100 N6        29.62F WCI  20
LONG PRAIRIE   CLOUDY    30  28  93 CALM      29.63S
LITTLE FALLS   CLOUDY    30  28  93 NW5       29.62F WCI  25
LITCHFIELD     CLOUDY    34  30  86 N9        29.61F WCI  26
BUFFALO        CLOUDY    33  31  94 NW7       29.61F WCI  26
MAPLE LAKE     CLOUDY    33  32  96 NW6       29.61F WCI  28
HUTCHINSON     CLOUDY    34  32  94 NW8       29.62F WCI  27
$$
MNZ037-044-045-052-053-270500-
   East Central Minnesota

CITY           SKY/WX    TMP DP  RH WIND       PRES   REMARKS
PRINCETON      CLOUDY    34  32  93 NW6       29.60F WCI  29
MORA           CLOUDY    32  28  86 N3        29.60F
CAMBRIDGE      CLOUDY    36  30  80 N3        29.58S
RUSH CITY      CLOUDY    33  31  92 N7        29.59S WCI  27
MOOSE LAKE     CLOUDY    32  27  80 N6        29.57F WCI  26
HINCKLEY       CLOUDY    32  32 100 N7        29.59F WCI  26
CLOQUET        CLOUDY    27  23  86 N7        29.59F WCI  19
MCGREGOR       CLOUDY    30  27  86 N8        29.61F WCI  23
$$
MNZ071>073-080-081-089-090-097-098-270500-
   Southwest Minnesota

CITY           SKY/WX    TMP DP  RH WIND       PRES   REMARKS
MONTEVIDEO     CLOUDY    30  28  93 N13       29.66S WCI  20
GRANITE FALLS  CLOUDY    32  30  92 NW16      29.67F WCI  21
CANBY          CLOUDY    31  28  86 NW10G16   29.69S WCI  22
MARSHALL       CLOUDY    30  27  88 N17       29.66F WCI  18
REDWOOD FALLS  CLOUDY    32  29  88 NW13      29.63F WCI  22
OLIVIA         CLOUDY    34  32  93 NW8       29.62F WCI  27
PIPESTONE      CLOUDY    30  23  74 N12G17    29.66R WCI  21
WINDOM         CLOUDY    30  30 100 NW15      29.64R WCI  19
WORTHINGTON    CLOUDY    29  27  92 NW17      29.65F WCI  17
JACKSON        CLOUDY    32  28  86 NW16      29.65R WCI  21
TRACY          CLOUDY    31  29  90 NW12      29.65F WCI  22
SLAYTON        CLOUDY    29  26  92 NW14      29.66S WCI  18
$$
MNZ065>067-074>077-082>085-091>093-270500-
   South Central Minnesota

CITY           SKY/WX    TMP DP  RH WIND       PRES   REMARKS
MANKATO        CLOUDY    36  30  80 NW10      29.61S
NEW ULM        CLOUDY    34  30  86 NW13      29.62S FOG     WCI  25
ST JAMES       CLOUDY    32  32 100 W16       29.64R WCI  21
FAIRMONT       CLOUDY    32  31  96 NW20      29.63R WCI  20
GLENCOE        CLOUDY    35  33  94 NW10      29.60F WCI  27
FARIBAULT      CLOUDY    36  34  93 NW6       29.58F FOG
OWATONNA       DRIZZLE   36  34  93 NW10      29.58S
WASECA         CLOUDY    36  34  93 NW9       29.60R
ALBERT LEA     CLOUDY    36  34  93 NW8       29.58R
$$
MNZ078>079-086>088-094>096-270500-
   Southeast Minnesota

CITY           SKY/WX    TMP DP  RH WIND       PRES   REMARKS
ROCHESTER      LGT RAIN  36  36 100 NW10      29.55R FOG
RED WING       DRIZZLE   37  34  87 N5        29.55F
STANTON        CLOUDY    38  33  81 NW7       29.56F
DODGE CENTER   DRIZZLE   36  36 100 NW12      29.55F
WINONA         CLOUDY    37  36  93 NW8       29.54S FOG
AUSTIN         CLOUDY    36  34  93 NW13      29.56R FOG
PRESTON        CLOUDY    37  34  89 NW10      29.54S
$$
ABBREVIATIONS USED IN REMARKS
   TC - TEMPERATURES IN CELSIUS
  WCI - WIND CHILL INDEX
   HX - HEAT INDEX
  VSB - VISIBILITY
$$




USA.gov is the U.S. government's official web portal to all federal, state and local government web resources and services.